ENGINEERING TRACK TESTING
Weather & Rail Temperature Monitoring

Weather station CLINTON

Clinton Interlocking (Clinton CT)

Measurement History

Home Current History Weekly graphs

,

to download data from the start of , to the end of ,

Conditions for past 24 hours (since 09/01/2026 01:30 AM)

Time Track 2 rail Track 1 E rail Track 2 rail Track 1 W rail Outside Air
Temperature
Solar
Radiation
Max. Wind Humidity Air Pressure Rain
SpeedDir
09/02/2026 01:15 AM 63 °F 63 °F 63 °F 62 °F 63.8 °F 0 watt/m2 10 mph WNW 64 % 30.137 in Hg 0 in
09/02/2026 01:00 AM 63 °F 63 °F 63 °F 62 °F 63.8 °F 0 watt/m2 6 mph NW 64 % 30.134 in Hg 0 in
09/02/2026 12:45 AM 63 °F 63 °F 63 °F 62 °F 63.7 °F 0 watt/m2 10 mph NW 65 % 30.133 in Hg 0 in
09/02/2026 12:30 AM 63 °F 63 °F 63 °F 62 °F 63.7 °F 0 watt/m2 10 mph NW 65 % 30.129 in Hg 0 in
09/02/2026 12:15 AM 62 °F 63 °F 62 °F 62 °F 63.8 °F 0 watt/m2 8 mph NNW 65 % 30.129 in Hg 0 in
09/02/2026 12:00 AM 62 °F 63 °F 62 °F 62 °F 63.7 °F 0 watt/m2 8 mph NNW 66 % 30.121 in Hg 0 in
09/01/2026 11:45 PM 62 °F 63 °F 62 °F 62 °F 63.6 °F 0 watt/m2 5 mph NW 65 % 30.116 in Hg 0 in
09/01/2026 11:30 PM 62 °F 63 °F 62 °F 62 °F 63.7 °F 0 watt/m2 5 mph NW 65 % 30.121 in Hg 0 in
09/01/2026 11:15 PM 63 °F 63 °F 62 °F 62 °F 63.7 °F 0 watt/m2 6 mph NW 65 % 30.124 in Hg 0 in
09/01/2026 11:00 PM 63 °F 63 °F 63 °F 62 °F 63.8 °F 0 watt/m2 4 mph NW 64 % 30.123 in Hg 0 in
09/01/2026 10:45 PM 63 °F 63 °F 63 °F 63 °F 64 °F 0 watt/m2 6 mph W 64 % 30.117 in Hg 0 in
09/01/2026 10:30 PM 64 °F 64 °F 63 °F 63 °F 64.2 °F 0 watt/m2 3 mph NW 64 % 30.11 in Hg 0 in
09/01/2026 10:15 PM 64 °F 64 °F 64 °F 63 °F 64.5 °F 0 watt/m2 8 mph WNW 64 % 30.106 in Hg 0 in
09/01/2026 10:00 PM 64 °F 64 °F 64 °F 64 °F 64.7 °F 0 watt/m2 8 mph NNW 63 % 30.099 in Hg 0 in
09/01/2026 09:45 PM 64 °F 64 °F 64 °F 64 °F 64.7 °F 0 watt/m2 13 mph NNW 63 % 30.095 in Hg 0 in
09/01/2026 09:30 PM 64 °F 64 °F 65 °F 64 °F 64.7 °F 0 watt/m2 12 mph NW 63 % 30.091 in Hg 0 in
09/01/2026 09:15 PM 64 °F 65 °F 64 °F 64 °F 64.7 °F 0 watt/m2 7 mph NW 63 % 30.084 in Hg 0 in
09/01/2026 09:00 PM 65 °F 65 °F 65 °F 64 °F 64.7 °F 0 watt/m2 7 mph WSW 63 % 30.088 in Hg 0 in
09/01/2026 08:45 PM 65 °F 65 °F 65 °F 65 °F 64.9 °F 0 watt/m2 13 mph N 63 % 30.074 in Hg 0 in
09/01/2026 08:30 PM 65 °F 65 °F 65 °F 65 °F 65.1 °F 0 watt/m2 18 mph NNW 63 % 30.079 in Hg 0 in
09/01/2026 08:15 PM 65 °F 65 °F 66 °F 65 °F 65.2 °F 0 watt/m2 8 mph N 63 % 30.078 in Hg 0 in
09/01/2026 08:00 PM 65 °F 66 °F 66 °F 65 °F 65.5 °F 0 watt/m2 11 mph NW 63 % 30.079 in Hg 0 in
09/01/2026 07:45 PM 66 °F 66 °F 66 °F 66 °F 65.6 °F 0 watt/m2 8 mph NW 63 % 30.069 in Hg 0 in
09/01/2026 07:30 PM 66 °F 66 °F 66 °F 66 °F 65.6 °F 0 watt/m2 11 mph NNW 62 % 30.073 in Hg 0 in
09/01/2026 07:15 PM 66 °F 67 °F 67 °F 66 °F 65.7 °F 2 watt/m2 18 mph N 63 % 30.075 in Hg 0 in
09/01/2026 07:00 PM 67 °F 67 °F 67 °F 67 °F 65.8 °F 11 watt/m2 22 mph NNW 62 % 30.06 in Hg 0 in
09/01/2026 06:45 PM 67 °F 68 °F 68 °F 68 °F 65.9 °F 29 watt/m2 25 mph N 62 % 30.058 in Hg 0 in
09/01/2026 06:30 PM 68 °F 68 °F 68 °F 68 °F 66.3 °F 44 watt/m2 14 mph NW 61 % 30.058 in Hg 0 in
09/01/2026 06:15 PM 68 °F 68 °F 68 °F 69 °F 66.9 °F 41 watt/m2 11 mph NW 61 % 30.059 in Hg 0 in
09/01/2026 06:00 PM 69 °F 69 °F 69 °F 69 °F 67.5 °F 55 watt/m2 10 mph NW 59 % 30.057 in Hg 0 in
09/01/2026 05:45 PM 69 °F 69 °F 69 °F 70 °F 67.9 °F 81 watt/m2 7 mph N 59 % 30.051 in Hg 0 in
09/01/2026 05:30 PM 69 °F 69 °F 69 °F 69 °F 68 °F 65 watt/m2 16 mph NNW 59 % 30.055 in Hg 0 in
09/01/2026 05:15 PM 69 °F 69 °F 69 °F 69 °F 68.3 °F 53 watt/m2 13 mph NW 59 % 30.052 in Hg 0 in
09/01/2026 05:00 PM 69 °F 69 °F 69 °F 69 °F 68.1 °F 44 watt/m2 15 mph NNW 59 % 30.049 in Hg 0 in
09/01/2026 04:45 PM 69 °F 69 °F 70 °F 69 °F 68.2 °F 59 watt/m2 6 mph NNW 60 % 30.044 in Hg 0 in
09/01/2026 04:30 PM 69 °F 68 °F 70 °F 70 °F 68.5 °F 60 watt/m2 18 mph NW 59 % 30.041 in Hg 0 in
09/01/2026 04:15 PM 69 °F 68 °F 70 °F 70 °F 68.3 °F 55 watt/m2 11 mph N 60 % 30.037 in Hg 0 in
09/01/2026 04:00 PM 70 °F 68 °F 70 °F 70 °F 68.2 °F 56 watt/m2 16 mph NNW 61 % 30.038 in Hg 0 in
09/01/2026 03:45 PM 70 °F 69 °F 70 °F 70 °F 68 °F 62 watt/m2 14 mph N 62 % 30.038 in Hg 0 in
09/01/2026 03:30 PM 70 °F 69 °F 71 °F 71 °F 68.4 °F 110 watt/m2 20 mph N 62 % 30.032 in Hg 0 in
09/01/2026 03:15 PM 70 °F 69 °F 70 °F 71 °F 68.1 °F 117 watt/m2 27 mph NNW 64 % 30.026 in Hg 0 in
09/01/2026 03:00 PM 70 °F 68 °F 70 °F 70 °F 68 °F 148 watt/m2 19 mph NW 65 % 30.024 in Hg 0 in
09/01/2026 02:45 PM 70 °F 68 °F 69 °F 70 °F 67.4 °F 130 watt/m2 25 mph NW 66 % 30.019 in Hg 0 in
09/01/2026 02:30 PM 69 °F 67 °F 69 °F 69 °F 67.1 °F 83 watt/m2 30 mph NW 66 % 30.024 in Hg 0 in
09/01/2026 02:15 PM 70 °F 68 °F 69 °F 69 °F 66.9 °F 95 watt/m2 16 mph NNW 67 % 30.034 in Hg 0 in
09/01/2026 02:00 PM 70 °F 68 °F 69 °F 69 °F 66.8 °F 62 watt/m2 22 mph NNW 66 % 30.038 in Hg 0 in
09/01/2026 01:45 PM 71 °F 68 °F 70 °F 70 °F 67.2 °F 65 watt/m2 20 mph N 66 % 30.032 in Hg 0 in
09/01/2026 01:30 PM 72 °F 69 °F 72 °F 70 °F 68.8 °F 28 watt/m2 20 mph NNW 63 % 30.041 in Hg 0 in
09/01/2026 01:15 PM 73 °F 72 °F 73 °F 73 °F 72.6 °F 62 watt/m2 1 mph NNE 70 % 30.032 in Hg 0 in
09/01/2026 01:00 PM 73 °F 72 °F 73 °F 73 °F 72.7 °F 79 watt/m2 6 mph NNE 70 % 30.032 in Hg 0 in
09/01/2026 12:45 PM 73 °F 72 °F 73 °F 73 °F 72.8 °F 73 watt/m2 1 mph NNE 70 % 30.032 in Hg 0 in
09/01/2026 12:30 PM 73 °F 72 °F 73 °F 73 °F 72.6 °F 95 watt/m2 3 mph N 70 % 30.029 in Hg 0 in
09/01/2026 12:15 PM 73 °F 72 °F 73 °F 73 °F 72.6 °F 91 watt/m2 1 mph NE 70 % 30.043 in Hg 0 in
09/01/2026 12:00 PM 73 °F 72 °F 73 °F 73 °F 72.5 °F 100 watt/m2 0 mph --- 71 % 30.041 in Hg 0 in
09/01/2026 11:45 AM 73 °F 72 °F 73 °F 73 °F 72.5 °F 100 watt/m2 3 mph ENE 71 % 30.044 in Hg 0 in
09/01/2026 11:30 AM 73 °F 72 °F 73 °F 73 °F 72.8 °F 125 watt/m2 1 mph ENE 71 % 30.04 in Hg 0 in
09/01/2026 11:15 AM 72 °F 72 °F 72 °F 73 °F 72.5 °F 150 watt/m2 2 mph ENE 71 % 30.039 in Hg 0 in
09/01/2026 11:00 AM 72 °F 71 °F 72 °F 72 °F 72.3 °F 115 watt/m2 4 mph ENE 71 % 30.05 in Hg 0.01 in
09/01/2026 10:45 AM 71 °F 71 °F 71 °F 71 °F 72 °F 68 watt/m2 6 mph ENE 70 % 30.06 in Hg 0.01 in
09/01/2026 10:30 AM 71 °F 71 °F 71 °F 71 °F 71.9 °F 49 watt/m2 4 mph ENE 70 % 30.056 in Hg 0.07 in
09/01/2026 10:15 AM 71 °F 71 °F 71 °F 71 °F 72 °F 40 watt/m2 4 mph ENE 70 % 30.059 in Hg 0.04 in
09/01/2026 10:00 AM 71 °F 71 °F 72 °F 71 °F 71.9 °F 32 watt/m2 3 mph ENE 70 % 30.059 in Hg 0 in
09/01/2026 09:45 AM 71 °F 71 °F 72 °F 71 °F 72 °F 70 watt/m2 2 mph ENE 70 % 30.052 in Hg 0 in
09/01/2026 09:30 AM 71 °F 71 °F 71 °F 71 °F 71.7 °F 91 watt/m2 3 mph ENE 71 % 30.048 in Hg 0 in
09/01/2026 09:15 AM 71 °F 70 °F 71 °F 70 °F 71.7 °F 75 watt/m2 3 mph ENE 70 % 30.052 in Hg 0 in
09/01/2026 09:00 AM 70 °F 70 °F 70 °F 70 °F 71.5 °F 49 watt/m2 3 mph ENE 70 % 30.056 in Hg 0 in
09/01/2026 08:45 AM 70 °F 70 °F 70 °F 70 °F 71.3 °F 39 watt/m2 0 mph --- 70 % 30.06 in Hg 0 in
09/01/2026 08:30 AM 70 °F 70 °F 70 °F 70 °F 71.2 °F 25 watt/m2 1 mph NNE 70 % 30.058 in Hg 0 in
09/01/2026 08:15 AM 70 °F 70 °F 70 °F 69 °F 71.2 °F 32 watt/m2 4 mph NE 69 % 30.058 in Hg 0 in
09/01/2026 08:00 AM 70 °F 69 °F 70 °F 69 °F 71.2 °F 21 watt/m2 5 mph ENE 69 % 30.056 in Hg 0 in
09/01/2026 07:45 AM 70 °F 69 °F 70 °F 69 °F 71.1 °F 9 watt/m2 3 mph ENE 69 % 30.061 in Hg 0 in
09/01/2026 07:30 AM 69 °F 69 °F 70 °F 69 °F 71.1 °F 15 watt/m2 8 mph ENE 69 % 30.059 in Hg 0 in
09/01/2026 07:15 AM 69 °F 69 °F 69 °F 69 °F 71 °F 10 watt/m2 9 mph NE 69 % 30.055 in Hg 0 in
09/01/2026 07:00 AM 69 °F 69 °F 69 °F 69 °F 70.7 °F 7 watt/m2 8 mph E 67 % 30.06 in Hg 0 in
09/01/2026 06:45 AM 69 °F 69 °F 69 °F 69 °F 70.7 °F 2 watt/m2 3 mph NE 67 % 30.052 in Hg 0 in
09/01/2026 06:30 AM 69 °F 69 °F 69 °F 69 °F 70.7 °F 0 watt/m2 2 mph ENE 66 % 30.06 in Hg 0 in
09/01/2026 06:15 AM 69 °F 69 °F 69 °F 69 °F 70.6 °F 0 watt/m2 6 mph NE 65 % 30.053 in Hg 0 in
09/01/2026 06:00 AM 69 °F 69 °F 69 °F 69 °F 70.8 °F 0 watt/m2 5 mph NE 65 % 30.049 in Hg 0 in
09/01/2026 05:45 AM 69 °F 69 °F 69 °F 69 °F 70.7 °F 0 watt/m2 7 mph ENE 65 % 30.051 in Hg 0.01 in
09/01/2026 05:30 AM 69 °F 69 °F 69 °F 69 °F 70.8 °F 0 watt/m2 11 mph NE 64 % 30.055 in Hg 0 in
09/01/2026 05:15 AM 69 °F 69 °F 69 °F 69 °F 70.6 °F 0 watt/m2 6 mph ESE 64 % 30.057 in Hg 0 in
09/01/2026 05:00 AM 70 °F 69 °F 70 °F 69 °F 70.7 °F 0 watt/m2 0 mph --- 64 % 30.064 in Hg 0 in
09/01/2026 04:45 AM 70 °F 69 °F 70 °F 69 °F 70.7 °F 0 watt/m2 0 mph --- 63 % 30.066 in Hg 0 in
09/01/2026 04:30 AM 70 °F 69 °F 70 °F 69 °F 70.6 °F 0 watt/m2 4 mph ESE 63 % 30.071 in Hg 0 in
09/01/2026 04:15 AM 70 °F 69 °F 70 °F 69 °F 70.9 °F 0 watt/m2 4 mph ESE 63 % 30.069 in Hg 0 in
09/01/2026 04:00 AM 70 °F 70 °F 70 °F 70 °F 71.6 °F 0 watt/m2 5 mph E 63 % 30.074 in Hg 0.01 in
09/01/2026 03:45 AM 71 °F 70 °F 71 °F 70 °F 71.9 °F 0 watt/m2 2 mph NE 63 % 30.074 in Hg 0.01 in
09/01/2026 03:30 AM 71 °F 71 °F 71 °F 70 °F 72 °F 0 watt/m2 7 mph ENE 62 % 30.072 in Hg 0.01 in
09/01/2026 03:15 AM 71 °F 71 °F 71 °F 71 °F 72.3 °F 0 watt/m2 5 mph ENE 62 % 30.074 in Hg 0 in
09/01/2026 03:00 AM 72 °F 72 °F 71 °F 71 °F 72.4 °F 0 watt/m2 3 mph ENE 62 % 30.076 in Hg 0 in
09/01/2026 02:45 AM 72 °F 72 °F 72 °F 71 °F 72.5 °F 0 watt/m2 4 mph ENE 62 % 30.081 in Hg 0 in
09/01/2026 02:30 AM 72 °F 72 °F 72 °F 71 °F 72.6 °F 0 watt/m2 1 mph ENE 62 % 30.086 in Hg 0 in
09/01/2026 02:15 AM 72 °F 72 °F 72 °F 72 °F 72.6 °F 0 watt/m2 2 mph ENE 62 % 30.086 in Hg 0 in
09/01/2026 02:00 AM 72 °F 72 °F 72 °F 71 °F 72.5 °F 0 watt/m2 3 mph ENE 62 % 30.09 in Hg 0 in
09/01/2026 01:45 AM 72 °F 72 °F 72 °F 71 °F 72.5 °F 0 watt/m2 2 mph ENE 62 % 30.093 in Hg 0 in

Alarms Station information Line AB Subdivision MIDWAY